EW7175 Weather Reports


Display with metric or nautical units.
time (UTC)temp
F
wind
direction
speed
MPH
gust
MPH
rain 1hr
in
rain 24hr
in
rain mn
in
humidity
%
barometer
mb
20200125050201 44 5 0.0 0.0 0.00 0.01 0.01 89 1020.4
20200125044734 45 5 0.0 0.0 0.00 0.01 0.01 88 1020.5
20200125043055 45 5 0.0 0.0 0.00 0.01 0.01 87 1020.6
20200125041555 45 5 0.0 0.0 0.00 0.01 0.01 87 1020.6
20200125040130 46 5 0.0 0.0 0.00 0.01 0.01 87 1020.5
20200125034610 46 5 0.0 0.0 0.00 0.01 0.01 86 1020.4
20200125033132 47 5 0.0 0.0 0.00 0.01 0.01 85 1020.3
20200125031542 47 5 0.0 0.0 0.00 0.01 0.01 85 1020.4
20200125030147 47 5 0.0 0.0 0.00 0.01 0.01 82 1020.4
20200125024607 48 5 0.0 0.0 0.00 0.01 0.01 80 1020.3
20200125023150 49 5 0.0 0.0 0.00 0.01 0.01 79 1020.2
20200125021554 49 5 0.0 0.0 0.00 0.01 0.01 76 1020.1
20200125020057 50 5 0.0 0.0 0.00 0.01 0.01 75 1019.9
20200125014632 51 5 0.0 0.0 0.00 0.01 0.01 70 1019.8
20200125013115 52 5 0.0 0.0 0.00 0.01 0.01 70 1019.8
20200125011620 53 5 0.0 0.0 0.00 0.01 0.01 66 1019.6
20200125010038 54 5 0.0 0.0 0.00 0.01 0.01 61 1019.5
20200125004616 55 5 0.0 0.0 0.00 0.01 0.01 58 1019.5
20200125003113 57 5 0.0 0.0 0.00 0.01 0.01 54 1019.3
20200125001606 59 5 0.0 0.0 0.00 0.01 0.01 50 1019.1
20200125000037 61 5 0.0 0.0 0.00 0.01 0.01 46 1019.1
20200124234552 63 5 0.0 0.0 0.00 0.01 0.01 44 1019.0
20200124233029 64 5 0.0 2.0 0.00 0.01 0.01 40 1019.1
20200124231549 65 5 0.0 2.0 0.00 0.01 0.01 37 1019.0
20200124230108 65 311 1.0 3.0 0.00 0.01 0.01 35 1019.0
20200124224532 66 288 1.0 5.0 0.00 0.01 0.01 34 1018.9
20200124223110 65 272 1.0 6.0 0.00 0.01 0.01 33 1019.0
20200124221604 65 349 2.0 7.0 0.00 0.01 0.01 35 1018.7
20200124220037 65 329 2.0 8.0 0.00 0.01 0.01 33 1018.9
20200124214545 65 351 2.0 8.0 0.00 0.01 0.01 35 1018.9
20200124213041 65 5 4.0 9.0 0.00 0.01 0.01 34 1018.9
20200124211545 65 221 1.0 6.0 0.00 0.01 0.01 37 1018.9
20200124210020 65 276 2.0 5.0 0.00 0.01 0.01 37 1019.1
20200124204519 65 252 0.0 5.0 0.00 0.01 0.01 39 1019.2
20200124203020 64 272 3.0 8.0 0.00 0.01 0.01 38 1019.3
20200124201525 64 11 1.0 6.0 0.00 0.01 0.01 39 1019.3
20200124200013 64 322 3.0 6.0 0.00 0.01 0.01 40 1019.5
20200124194506 63 333 1.0 8.0 0.00 0.01 0.01 42 1019.8
20200124193006 63 288 2.0 7.0 0.00 0.01 0.01 43 1020.1
20200124191700 63 278 1.0 5.0 0.00 0.01 0.01 44 1020.4
20200124190304 62 355 3.0 8.0 0.00 0.01 0.01 44 1020.7
20200124184624 61 11 1.0 4.0 0.00 0.01 0.01 49 1020.9
20200124183235 61 5 2.0 6.0 0.00 0.01 0.01 49 1021.2
20200124181824 61 330 2.0 4.0 0.00 0.01 0.01 49 1021.4
20200124180233 60 355 2.0 4.0 0.00 0.01 0.01 52 1021.7
20200124174809 59 9 2.0 8.0 0.00 0.01 0.01 54 1022.0
20200124173201 58 48 1.0 8.0 0.00 0.01 0.01 59 1022.1
20200124171709 56 355 2.0 6.0 0.00 0.01 0.01 66 1022.2
20200124170154 55 321 3.0 6.0 0.00 0.01 0.01 68 1022.4
20200124164612 54 323 2.0 9.0 0.00 0.01 0.01 70 1022.4
20200124163129 54 279 3.0 10.0 0.00 0.01 0.01 73 1022.4
20200124161640 53 318 4.0 10.0 0.00 0.01 0.01 75 1022.3
20200124160225 51 342 2.0 7.0 0.00 0.01 0.01 85 1022.2
20200124154625 50 257 1.0 5.0 0.00 0.01 0.01 89 1022.1
20200124153053 48 272 1.0 4.0 0.00 0.01 0.01 90 1021.9
20200124151544 47 319 0.0 5.0 0.01 0.01 0.01 91 1021.6
20200124150025 46 281 2.0 4.0 0.01 0.01 0.01 91 1021.5
20200124144505 45 260 1.0 5.0 0.01 0.02 0.01 91 1021.3
20200124143211 44 281 0.0 3.0 0.01 0.02 0.01 91 1021.1
20200124141723 42 283 0.0 4.0 0.00 0.01 0.00 91 1021.0
20200124140154 41 246 0.0 3.0 0.00 0.01 0.00 91 1020.9
20200124134754 41 244 0.0 2.0 0.00 0.01 0.00 91 1020.9
20200124133219 40 335 0.0 2.0 0.00 0.01 0.00 91 1020.6
20200124131657 39 350 0.0 0.0 0.00 0.01 0.00 91 1020.4
20200124130138 39 350 0.0 0.0 0.00 0.01 0.00 91 1020.2
20200124124639 39 350 0.0 0.0 0.00 0.01 0.00 91 1020.0
20200124123139 39 350 0.0 0.0 0.00 0.01 0.00 91 1019.7
20200124121552 39 350 0.0 0.0 0.00 0.01 0.00 91 1019.5
20200124120200 39 350 0.0 0.0 0.00 0.01 0.00 91 1019.3
20200124114718 39 350 0.0 0.0 0.00 0.01 0.00 91 1019.0
20200124113109 39 350 0.0 0.0 0.00 0.01 0.00 91 1018.8
20200124111657 39 350 0.0 0.0 0.00 0.01 0.00 91 1018.8
20200124110054 39 350 0.0 0.0 0.00 0.01 0.00 91 1018.8
20200124104617 39 350 0.0 0.0 0.00 0.01 0.00 91 1018.6
20200124103210 39 350 0.0 0.0 0.00 0.01 0.00 91 1018.5
20200124101603 40 350 0.0 0.0 0.00 0.01 0.00 91 1018.6
20200124100041 40 350 0.0 0.0 0.00 0.01 0.00 91 1018.7
20200124094549 40 350 0.0 0.0 0.00 0.01 0.00 91 1018.7
20200124093041 40 350 0.0 0.0 0.00 0.01 0.00 91 1018.9
20200124091547 40 350 0.0 0.0 0.00 0.01 0.00 91 1018.7
20200124090032 41 350 0.0 0.0 0.00 0.01 0.00 91 1018.7
20200124084519 41 350 0.0 0.0 0.00 0.01 0.00 91 1018.6
20200124083025 41 350 0.0 0.0 0.00 0.01 0.00 91 1018.6
20200124081532 41 350 0.0 0.0 0.00 0.01 0.00 91 1018.7
20200124080017 42 350 0.0 0.0 0.00 0.01 0.00 91 1018.7
20200124074535 42 350 0.0 0.0 0.00 0.01 0.00 91 1018.6
20200124073010 42 350 0.0 0.0 0.00 0.01 0.00 91 1018.6
20200124071514 42 350 0.0 0.0 0.00 0.01 0.00 91 1018.6
20200124070005 42 350 0.0 0.0 0.00 0.01 0.00 91 1018.5
20200124064811 43 350 0.0 0.0 0.00 0.02 0.00 91 1018.5
20200124063209 43 350 0.0 0.0 0.00 0.02 0.00 91 1018.6
20200124061805 43 350 0.0 0.0 0.00 0.02 0.00 91 1018.7
20200124060137 43 350 0.0 0.0 0.00 0.02 0.00 91 1018.8
20200124054647 44 350 0.0 0.0 0.00 0.09 0.02 91 1018.9
20200124053111 44 350 0.0 0.0 0.00 0.09 0.02 90 1018.9
20200124051733 44 350 0.0 0.0 0.00 0.09 0.02 90 1018.9